FW7255 Weather Reports


Display with metric or nautical units.
time (UTC)temp
F
wind
direction
speed
MPH
gust
MPH
rain 1hr
in
rain 24hr
in
rain mn
in
humidity
%
barometer
mb
20210925013111 57 0 0.0 0.0 0.00 0.00 0.00 87 1019.4
20210925012556 58 0 0.0 0.0 0.00 0.00 0.00 86 1019.4
20210925012118 58 0 0.0 0.0 0.00 0.00 0.00 85 1019.4
20210925011658 58 0 0.0 0.0 0.00 0.00 0.00 85 1019.4
20210925011050 58 0 0.0 0.0 0.00 0.00 0.00 85 1019.4
20210925010550 59 0 0.0 0.0 0.00 0.00 0.00 84 1019.4
20210925010153 59 0 0.0 0.0 0.00 0.00 0.00 84 1019.4
20210925005550 59 0 0.0 0.0 0.00 0.00 0.00 84 1019.4
20210925005056 59 0 0.0 0.0 0.00 0.00 0.00 82 1019.3
20210925004643 59 0 0.0 0.0 0.00 0.00 0.00 82 1019.2
20210925004104 59 0 0.0 0.0 0.00 0.00 0.00 81 1019.2
20210925003622 60 0 0.0 0.0 0.00 0.00 0.00 81 1019.1
20210925003157 60 0 0.0 0.0 0.00 0.00 0.00 82 1019.1
20210925002550 60 0 0.0 0.0 0.00 0.00 0.00 81 1019.0
20210925002050 60 0 0.0 0.0 0.00 0.00 0.00 80 1018.9
20210925001642 60 0 0.0 0.0 0.00 0.00 0.00 80 1018.9
20210925001049 60 0 0.0 0.0 0.00 0.00 0.00 78 1018.9
20210925000602 61 0 0.0 0.0 0.00 0.00 0.00 78 1018.9
20210925000150 61 0 0.0 0.0 0.00 0.00 0.00 78 1018.9
20210924235550 61 0 0.0 0.0 0.00 0.00 0.00 76 1018.8
20210924235130 62 0 0.0 0.0 0.00 0.00 0.00 75 1018.7
20210924234638 62 0 0.0 0.0 0.00 0.00 0.00 75 1018.8
20210924234125 63 0 0.0 0.0 0.00 0.00 0.00 74 1018.8
20210924233607 63 0 0.0 0.0 0.00 0.00 0.00 73 1018.7
20210924233134 63 0 0.0 0.0 0.00 0.00 0.00 72 1018.7
20210924232601 64 0 0.0 0.0 0.00 0.00 0.00 72 1018.7
20210924232059 64 0 0.0 0.0 0.00 0.00 0.00 71 1018.6
20210924231643 65 0 0.0 0.0 0.00 0.00 0.00 70 1018.7
20210924231050 66 0 0.0 0.0 0.00 0.00 0.00 68 1018.7
20210924230552 66 0 0.0 0.0 0.00 0.00 0.00 66 1018.8
20210924230156 67 0 0.0 0.0 0.00 0.00 0.00 65 1018.9
20210924225601 68 0 0.0 0.0 0.00 0.00 0.00 64 1018.8
20210924225049 69 0 0.0 0.0 0.00 0.00 0.00 61 1019.0
20210924224555 70 0 0.0 0.0 0.00 0.00 0.00 60 1018.9
20210924224050 70 0 0.0 0.0 0.00 0.00 0.00 57 1018.7
20210924223549 71 0 0.0 0.0 0.00 0.00 0.00 55 1018.8
20210924223129 72 0 0.0 0.0 0.00 0.00 0.00 53 1018.8
20210924222606 73 0 0.0 0.0 0.00 0.00 0.00 52 1018.9
20210924222050 74 0 0.0 0.0 0.00 0.00 0.00 49 1018.8
20210924221719 74 0 0.0 1.0 0.00 0.00 0.00 49 1018.8
20210924221056 74 0 0.0 1.0 0.00 0.00 0.00 51 1018.7
20210924220612 74 0 0.0 0.0 0.00 0.00 0.00 51 1018.7
20210924220156 75 0 0.0 0.0 0.00 0.00 0.00 50 1018.6
20210924215608 76 0 0.0 0.0 0.00 0.00 0.00 50 1018.7
20210924215049 76 0 0.0 0.0 0.00 0.00 0.00 50 1018.7
20210924214621 76 0 0.0 0.0 0.00 0.00 0.00 46 1018.6
20210924214053 77 0 0.0 0.0 0.00 0.00 0.00 46 1018.7
20210924213549 77 0 0.0 0.0 0.00 0.00 0.00 46 1018.5
20210924213320 77 0 0.0 1.0 0.00 0.00 0.00 47 1018.5
20210924212551 77 0 0.0 2.0 0.00 0.00 0.00 44 1018.5
20210924212050 76 0 0.0 2.0 0.00 0.00 0.00 46 1018.4
20210924211719 76 0 0.0 3.0 0.00 0.00 0.00 46 1018.4
20210924211050 77 0 0.0 3.0 0.00 0.00 0.00 45 1018.3
20210924210549 78 0 0.0 1.0 0.00 0.00 0.00 46 1018.4
20210924210424 77 0 0.0 1.0 0.00 0.00 0.00 45 1018.4
20210924205553 78 0 0.0 1.0 0.00 0.00 0.00 44 1018.4
20210924205053 77 0 0.0 1.0 0.00 0.00 0.00 43 1018.4
20210924204641 77 0 0.0 1.0 0.00 0.00 0.00 44 1018.4
20210924204103 77 0 0.0 1.0 0.00 0.00 0.00 47 1018.4
20210924203551 77 0 0.0 1.0 0.00 0.00 0.00 46 1018.5
20210924203207 77 0 0.0 0.0 0.00 0.00 0.00 44 1018.4
20210924202549 76 0 0.0 2.0 0.00 0.00 0.00 44 1018.4
20210924202049 75 200 0.0 4.0 0.00 0.00 0.00 42 1018.4
20210924201633 75 233 0.0 4.0 0.00 0.00 0.00 40 1018.3
20210924201053 76 113 1.0 4.0 0.00 0.00 0.00 41 1018.4
20210924200553 76 257 0.0 2.0 0.00 0.00 0.00 43 1018.4
20210924200139 76 0 0.0 2.0 0.00 0.00 0.00 44 1018.3
20210924195551 75 0 0.0 1.0 0.00 0.00 0.00 43 1018.2
20210924195050 75 0 0.0 5.0 0.00 0.00 0.00 41 1018.2
20210924194656 75 236 1.0 7.0 0.00 0.00 0.00 43 1018.3
20210924194050 75 232 1.0 7.0 0.00 0.00 0.00 44 1018.5
20210924193551 75 267 0.0 3.0 0.00 0.00 0.00 46 1018.3
20210924193143 75 40 0.0 3.0 0.00 0.00 0.00 45 1018.4
20210924192550 75 0 1.0 3.0 0.00 0.00 0.00 46 1018.4
20210924192049 75 0 0.0 3.0 0.00 0.00 0.00 46 1018.4
20210924191626 75 0 0.0 3.0 0.00 0.00 0.00 44 1018.5
20210924191049 75 0 0.0 4.0 0.00 0.00 0.00 46 1018.4
20210924190551 75 0 0.0 4.0 0.00 0.00 0.00 47 1018.5
20210924190117 75 0 0.0 7.0 0.00 0.00 0.00 45 1018.5
20210924185550 75 0 0.0 7.0 0.00 0.00 0.00 46 1018.5
20210924185106 75 247 0.0 8.0 0.00 0.00 0.00 45 1018.6
20210924184742 74 0 0.0 8.0 0.00 0.00 0.00 48 1018.6
20210924184050 74 235 0.0 4.0 0.00 0.00 0.00 49 1018.7
20210924183552 74 0 0.0 1.0 0.00 0.00 0.00 48 1018.7
20210924183119 74 0 0.0 1.0 0.00 0.00 0.00 49 1018.7
20210924182549 74 0 0.0 2.0 0.00 0.00 0.00 48 1018.9
20210924182049 74 0 0.0 2.0 0.00 0.00 0.00 49 1018.9
20210924181648 73 252 0.0 6.0 0.00 0.00 0.00 50 1019.1
20210924181054 73 0 1.0 6.0 0.00 0.00 0.00 50 1019.3
20210924180550 73 130 1.0 4.0 0.00 0.00 0.00 49 1019.3
20210924180126 73 0 0.0 4.0 0.00 0.00 0.00 54 1019.4
20210924175553 73 0 0.0 4.0 0.00 0.00 0.00 51 1019.3
20210924175049 73 129 1.0 4.0 0.00 0.00 0.00 49 1019.4
20210924174613 73 0 1.0 3.0 0.00 0.00 0.00 52 1019.5
20210924174049 72 0 0.0 7.0 0.00 0.00 0.00 53 1019.5
20210924173609 72 0 1.0 7.0 0.00 0.00 0.00 54 1019.6
20210924173107 72 56 0.0 6.0 0.00 0.00 0.00 53 1019.6
20210924172551 72 131 1.0 6.0 0.00 0.00 0.00 51 1019.7
20210924172106 72 90 1.0 4.0 0.00 0.00 0.00 50 1020.0
20210924171618 72 0 1.0 3.0 0.00 0.00 0.00 55 1019.9
20210924171103 72 82 0.0 2.0 0.00 0.00 0.00 52 1020.0
20210924170551 72 0 0.0 3.0 0.00 0.00 0.00 51 1020.1
20210924170111 72 0 0.0 4.0 0.00 0.00 0.00 52 1020.1
20210924165558 72 0 2.0 4.0 0.00 0.00 0.00 53 1020.1
20210924165050 72 321 0.0 3.0 0.00 0.00 0.00 54 1020.2
20210924164625 72 0 0.0 4.0 0.00 0.00 0.00 53 1020.3
20210924164057 72 0 0.0 4.0 0.00 0.00 0.00 54 1020.3
20210924163548 71 131 0.0 2.0 0.00 0.00 0.00 52 1020.5
20210924163118 71 254 0.0 2.0 0.00 0.00 0.00 52 1020.4
20210924162607 71 248 0.0 4.0 0.00 0.00 0.00 52 1020.5
20210924162049 71 0 1.0 4.0 0.00 0.00 0.00 53 1020.6
20210924161644 71 0 0.0 5.0 0.00 0.00 0.00 51 1020.6
20210924161049 70 0 2.0 5.0 0.00 0.00 0.00 51 1020.7
20210924160603 70 0 0.0 4.0 0.00 0.00 0.00 54 1020.6
20210924160213 70 49 0.0 4.0 0.00 0.00 0.00 53 1020.5
20210924155550 70 0 0.0 4.0 0.00 0.00 0.00 53 1020.5
20210924155110 70 0 0.0 3.0 0.00 0.00 0.00 57 1020.6
20210924154655 70 0 0.0 4.0 0.00 0.00 0.00 56 1020.5
20210924154050 70 0 1.0 4.0 0.00 0.00 0.00 55 1020.7
20210924153550 70 229 0.0 3.0 0.00 0.00 0.00 55 1020.9
20210924153141 69 0 0.0 3.0 0.00 0.00 0.00 56 1020.9
20210924152550 69 0 0.0 7.0 0.00 0.00 0.00 57 1020.8
20210924152050 69 0 2.0 7.0 0.00 0.00 0.00 55 1020.9
20210924151707 69 90 0.0 3.0 0.00 0.00 0.00 57 1021.0
20210924151050 69 0 0.0 3.0 0.00 0.00 0.00 59 1021.0
20210924150555 68 0 0.0 3.0 0.00 0.00 0.00 61 1021.0
20210924150231 68 90 0.0 3.0 0.00 0.00 0.00 61 1020.9
20210924145549 67 0 0.0 3.0 0.00 0.00 0.00 60 1021.0
20210924145050 67 0 0.0 4.0 0.00 0.00 0.00 60 1021.0
20210924144703 67 61 1.0 5.0 0.00 0.00 0.00 63 1021.0
20210924144134 67 85 0.0 7.0 0.00 0.00 0.00 62 1020.9
20210924143549 67 272 1.0 7.0 0.00 0.00 0.00 61 1020.9
20210924143252 66 277 0.0 3.0 0.00 0.00 0.00 63 1020.8
20210924142549 66 0 0.0 3.0 0.00 0.00 0.00 65 1020.7
20210924142100 65 0 0.0 3.0 0.00 0.00 0.00 65 1020.6
20210924141625 65 253 0.0 4.0 0.00 0.00 0.00 68 1020.5
20210924141059 64 298 1.0 4.0 0.00 0.00 0.00 69 1020.5
20210924140605 64 0 0.0 5.0 0.00 0.00 0.00 68 1020.5
20210924140139 64 0 0.0 7.0 0.00 0.00 0.00 68 1020.5
20210924135611 63 63 1.0 7.0 0.00 0.00 0.00 70 1020.4
20210924135058 63 0 1.0 7.0 0.00 0.00 0.00 70 1020.4
20210924134821 62 0 0.0 7.0 0.00 0.00 0.00 74 1020.4
20210924134050 62 72 0.0 5.0 0.00 0.00 0.00 72 1020.5
20210924133604 62 0 0.0 5.0 0.00 0.00 0.00 73 1020.5
20210924133123 61 287 0.0 5.0 0.00 0.00 0.00 76 1020.3
20210924132550 61 297 0.0 3.0 0.00 0.00 0.00 76 1020.3
20210924132051 60 0 0.0 3.0 0.00 0.00 0.00 77 1020.2
20210924131641 59 0 0.0 1.0 0.00 0.00 0.00 80 1020.2
20210924131050 58 257 0.0 1.0 0.00 0.00 0.00 81 1020.2
20210924130600 58 0 0.0 4.0 0.00 0.00 0.00 82 1020.1
20210924130127 57 0 0.0 4.0 0.00 0.00 0.00 83 1020.2
20210924125551 57 0 0.0 0.0 0.00 0.00 0.00 84 1020.1
20210924125051 56 0 0.0 2.0 0.00 0.00 0.00 85 1020.1
20210924124657 56 0 0.0 3.0 0.00 0.00 0.00 84 1020.0
20210924124048 55 0 0.0 3.0 0.00 0.00 0.00 85 1020.0
20210924123547 55 0 0.0 3.0 0.00 0.00 0.00 86 1020.0
20210924123229 55 0 0.0 2.0 0.00 0.00 0.00 87 1020.1
20210924122551 54 0 0.0 2.0 0.00 0.00 0.00 88 1020.0
20210924122049 54 0 0.0 2.0 0.00 0.00 0.00 89 1020.0
20210924121617 54 0 0.0 0.0 0.00 0.00 0.00 89 1020.0
20210924121050 53 0 0.0 1.0 0.00 0.00 0.00 90 1020.1
20210924120550 53 0 0.0 1.0 0.00 0.00 0.00 90 1020.1
20210924120123 52 0 0.0 0.0 0.00 0.00 0.00 91 1019.9
20210924115550 52 0 0.0 1.0 0.00 0.01 0.00 92 1019.8
20210924115051 52 0 0.0 1.0 0.00 0.01 0.00 92 1019.8
20210924114658 52 0 0.0 1.0 0.00 0.01 0.00 92 1019.8
20210924114052 51 0 0.0 1.0 0.00 0.01 0.00 93 1019.8
20210924113552 51 0 0.0 1.0 0.00 0.01 0.00 93 1019.8
20210924113153 51 0 0.0 1.0 0.00 0.01 0.00 93 1019.7
20210924112554 51 0 0.0 1.0 0.00 0.01 0.00 93 1019.8
20210924112048 51 0 0.0 1.0 0.00 0.01 0.00 93 1019.7
20210924111638 51 0 0.0 1.0 0.00 0.01 0.00 93 1019.6
20210924111100 51 0 0.0 2.0 0.00 0.01 0.00 94 1019.4
20210924110550 51 0 0.0 2.0 0.00 0.01 0.00 94 1019.3
20210924110406 51 0 0.0 1.0 0.00 0.01 0.00 94 1019.4
20210924105547 51 0 0.0 1.0 0.00 0.01 0.00 94 1019.2
20210924105050 51 0 0.0 0.0 0.00 0.01 0.00 94 1019.3
20210924104639 51 0 0.0 0.0 0.00 0.01 0.00 94 1019.3
20210924104050 51 0 0.0 0.0 0.00 0.01 0.00 94 1019.2
20210924103552 51 0 0.0 2.0 0.00 0.01 0.00 94 1019.2
20210924103234 51 0 0.0 2.0 0.00 0.01 0.00 94 1019.2
20210924102549 51 0 0.0 0.0 0.00 0.01 0.00 94 1019.0
20210924102049 51 0 0.0 0.0 0.00 0.01 0.00 94 1019.1
20210924101650 51 0 0.0 0.0 0.00 0.01 0.00 94 1019.0
20210924101047 51 0 0.0 0.0 0.00 0.01 0.00 94 1018.9
20210924100551 51 0 0.0 0.0 0.00 0.01 0.00 95 1018.8
20210924100129 51 0 0.0 0.0 0.00 0.01 0.00 94 1018.8
20210924095554 51 0 0.0 0.0 0.00 0.01 0.00 94 1018.8
20210924095105 51 0 0.0 1.0 0.00 0.01 0.00 94 1018.8
20210924094716 51 0 0.0 1.0 0.00 0.01 0.00 94 1018.6
20210924094050 51 270 0.0 1.0 0.00 0.01 0.00 94 1018.6
20210924093548 51 0 0.0 0.0 0.00 0.01 0.00 94 1018.8
20210924093208 52 0 0.0 0.0 0.00 0.01 0.00 95 1018.6
20210924084103 51 0 0.0 0.0 0.00 0.01 0.00 98 1017.8
20210924083548 51 0 0.0 0.0 0.00 0.01 0.00 98 1017.8
20210924083151 51 0 0.0 0.0 0.00 0.01 0.00 98 1017.8
20210924082559 51 0 0.0 0.0 0.00 0.01 0.00 98 1017.8
20210924082049 51 0 0.0 0.0 0.00 0.01 0.00 98 1017.8
20210924081614 51 0 0.0 0.0 0.00 0.01 0.00 98 1017.7
20210924081054 51 0 0.0 0.0 0.00 0.01 0.00 97 1017.7
20210924080548 51 0 0.0 0.0 0.00 0.01 0.00 97 1017.7
20210924080130 51 0 0.0 0.0 0.00 0.01 0.00 97 1017.6
20210924075558 51 0 0.0 0.0 0.00 0.01 0.00 97 1017.6
20210924075100 51 0 0.0 0.0 0.00 0.01 0.00 97 1017.5
20210924074658 51 0 0.0 0.0 0.00 0.01 0.00 97 1017.4
20210924074055 51 0 0.0 0.0 0.00 0.01 0.00 98 1017.4
20210924073552 51 0 0.0 0.0 0.00 0.01 0.00 97 1017.2
20210924073141 51 0 0.0 0.0 0.00 0.01 0.00 97 1017.3
20210924072550 51 0 0.0 0.0 0.00 0.01 0.00 97 1017.4
20210924072049 51 0 0.0 0.0 0.00 0.01 0.00 97 1017.3
20210924071654 52 0 0.0 0.0 0.00 0.01 0.00 97 1017.4
20210924071049 52 0 0.0 0.0 0.00 0.01 0.00 97 1017.3
20210924070550 52 0 0.0 0.0 0.00 0.01 0.00 97 1017.3
20210924070132 52 0 0.0 0.0 0.00 0.01 0.00 97 1017.3
20210924065549 52 0 0.0 0.0 0.00 0.01 0.00 97 1017.3
20210924065047 52 0 0.0 0.0 0.00 0.01 0.00 97 1017.3
20210924064625 53 0 0.0 0.0 0.00 0.01 0.00 97 1017.3
20210924064047 53 0 0.0 0.0 0.00 0.01 0.00 97 1017.2
20210924063547 53 0 0.0 0.0 0.00 0.01 0.00 97 1017.2
20210924063141 53 0 0.0 0.0 0.00 0.01 0.00 97 1017.2
20210924062551 53 0 0.0 0.0 0.00 0.01 0.00 97 1017.2
20210924062102 53 0 0.0 0.0 0.00 0.01 0.00 97 1017.1
20210924061627 53 0 0.0 0.0 0.00 0.01 0.00 97 1017.0
20210924061059 53 0 0.0 0.0 0.00 0.01 0.00 96 1017.1
20210924060551 53 0 0.0 0.0 0.00 0.01 0.00 96 1017.1
20210924060154 53 0 0.0 0.0 0.00 0.01 0.00 96 1017.2
20210924055548 54 0 0.0 0.0 0.00 0.23 0.00 97 1017.2
20210924055050 54 0 0.0 0.0 0.00 0.23 0.00 97 1017.2
20210924054605 54 0 0.0 0.0 0.00 0.23 0.00 97 1017.2
20210924054049 54 0 0.0 0.0 0.00 0.23 0.00 97 1017.1
20210924053551 54 0 0.0 0.0 0.00 0.23 0.00 97 1017.3
20210924053120 54 0 0.0 0.0 0.00 0.23 0.00 97 1017.3
20210924052606 54 0 0.0 0.0 0.00 0.23 0.00 97 1017.4
20210924052137 53 0 0.0 0.0 0.00 0.23 0.00 97 1017.3
20210924051653 54 0 0.0 0.0 0.00 0.23 0.00 97 1017.3
20210924051050 54 0 0.0 0.0 0.00 0.23 0.00 97 1017.3
20210924050612 53 0 0.0 0.0 0.00 0.23 0.00 97 1017.3
20210924050142 53 0 0.0 0.0 0.00 0.23 0.00 96 1017.4
20210924045550 53 0 0.0 0.0 0.00 0.36 0.00 96 1017.3
20210924045104 54 0 0.0 0.0 0.00 0.36 0.00 96 1017.3
20210924044706 54 0 0.0 0.0 0.00 0.36 0.00 96 1017.4
20210924044050 54 0 0.0 0.0 0.00 0.36 0.00 96 1017.4
20210924043552 54 0 0.0 0.0 0.00 0.36 0.00 96 1017.5
20210924043202 54 0 0.0 0.0 0.00 0.36 0.00 95 1017.6
20210924042556 54 0 0.0 0.0 0.00 0.36 0.00 95 1017.5
20210924042050 54 0 0.0 0.0 0.00 0.36 0.00 95 1017.6
20210924041607 54 0 0.0 0.0 0.00 0.36 0.00 95 1017.4
20210924041102 55 0 0.0 0.0 0.00 0.36 0.00 94 1017.5
20210924040602 55 0 0.0 0.0 0.00 0.36 0.00 94 1017.4
20210924040132 55 0 0.0 0.0 0.00 0.36 0.00 94 1017.5
20210924035549 55 0 0.0 0.0 0.00 0.62 0.36 94 1017.5
20210924035050 55 0 0.0 0.0 0.00 0.62 0.36 93 1017.5
20210924034634 56 0 0.0 0.0 0.00 0.62 0.36 94 1017.6
20210924034051 56 0 0.0 0.0 0.00 0.62 0.36 93 1017.5
20210924033558 56 0 0.0 0.0 0.00 0.62 0.36 93 1017.5
20210924033124 56 0 0.0 0.0 0.00 0.62 0.36 93 1017.4
20210924032549 56 0 0.0 0.0 0.00 0.62 0.36 93 1017.4
20210924032135 56 0 0.0 0.0 0.00 0.62 0.36 92 1017.3
20210924031719 56 0 0.0 0.0 0.00 0.62 0.36 91 1017.3
20210924031052 56 0 0.0 0.0 0.00 0.62 0.36 91 1017.2
20210924030552 57 0 0.0 0.0 0.00 0.62 0.36 91 1017.2
20210924030214 57 0 0.0 0.0 0.00 0.62 0.36 91 1017.0
20210924025613 57 0 0.0 0.0 0.00 0.62 0.36 90 1017.1
20210924025050 57 0 0.0 0.0 0.00 0.62 0.36 89 1016.9
20210924024628 57 0 0.0 0.0 0.00 0.62 0.36 89 1016.9
20210924024050 58 0 0.0 0.0 0.00 0.62 0.36 89 1017.0
20210924023551 58 0 0.0 0.0 0.00 0.62 0.36 87 1016.9
20210924023206 58 0 0.0 0.0 0.00 0.62 0.36 87 1017.0
20210924022554 58 0 0.0 0.0 0.00 0.62 0.36 88 1016.9
20210924022049 58 0 0.0 0.0 0.00 0.62 0.36 87 1016.9
20210924021819 59 0 0.0 0.0 0.00 0.62 0.36 87 1016.8
20210924021056 59 0 0.0 0.0 0.00 0.62 0.36 86 1016.9
20210924020554 59 0 0.0 0.0 0.00 0.62 0.36 85 1016.8
20210924020121 59 0 0.0 1.0 0.00 0.62 0.36 85 1016.8
20210924015550 59 0 0.0 1.0 0.00 0.62 0.36 85 1016.5
20210924015052 59 0 0.0 0.0 0.00 0.62 0.36 86 1016.5
20210924014659 59 0 0.0 0.0 0.00 0.62 0.36 86 1016.5
20210924014054 60 0 0.0 0.0 0.00 0.62 0.36 84 1016.5
20210924013552 60 0 0.0 0.0 0.00 0.62 0.36 83 1016.4